THORAD AGENA D DEB, 4681

Orbit data source: Space-Track

THORAD AGENA D DEB, 4681 is space debris in SSO originally from a launch on Wed, 08 Apr 1970 UTC launched from the Air Force Western Test Range (AFWTR). Debris objects in space refer to the collection of defunct objects orbiting the Earth. Examples of debris include non-operational satellites, rocket bodies, and fragments generated from explosions, collisions, or faulty payload assembly.

Loading next visibility...
Identifier
4681, 1970-025BE
Orbit
SSO
Country
Flag of USUS
Related business
Manufacturer
Unknown
Mission
Spacecraft
Bus & Motor
Unknown
Mass
Unknown
Launch date (UTC)
1970-04-08 (56 years ago)
Launch vehicle
Unknown
Launch site
Air Force Western Test Range (AFWTR)
Object type
Payload
Rocket body
Debris
Shape & HBR
Unknown shape, 0.2 m
Radar Cross Section
Small (<0.1 m²)

Expand to show TLE details & history
Last TLE update: 7 hours ago

TLE from 7 hours ago
0 THORAD AGENA D DEB
1  4681U 70025BE  26034.13541537  .00000514  00000-0  14041-2 0  9999
2  4681  99.8628 266.8423 0243741 353.1178 158.2616 13.08794011657655
Epoch: 2026-02-03T03:14Z
TLE epoch observation values (Epoch: 2026-02-03T03:14:59.887Z)
Latitude
27.20912°
Longitude
-90.12491°
Altitude
1,403.827 km
Speed
7.079 km/s
True Right ascension
06h 07m 46s
True Declination
27° 04' 52"
Sunlit
Object was in full shadow at epoch
Visualization orbit readout
Latitude
Unknown
Longitude
Unknown
Altitude
Unknown
Speed
Unknown
Apparent Right ascension
Unknown
Apparent Declination
Unknown
Sunlit
N/A
Visualization observer readout
Local Sidereal Time
11:43:04
Azimuth
Unknown
Elevation
Unknown
Doppler factor
Unknown
Orbital elements
Apogee altitude
1,410.515 km
Perigee altitude
1,039.866 km
Semi-major axis
7,603.327 km
Eccentricity
0.02437
Inclination
99.8628°
RAAN
266.8423°
Arg. of periapsis
353.1178°
True anomaly
159.26751°
Mean anomaly
158.2616°
Eccentric anomaly
158.76736°
Mean motion
3.27369 °/min
Orbital period
109.97 mins
BSTAR
0.0014041
Loading maneuver chart data...
Computing Atmospheric mass density...

Documentation

Showing up to 5 results
|